Regional Weather Roundup
Issued by NWS Newport/Morehead, NC

Current Version | Previous Version | Graphics & Text | Print | Product List | Glossary On
Versions: 1 2 3 4 5 6 7 8 9 10 11 12 13 14 15 16 17 18 19 20 21 22 23 24 25 26 27 28 29 30 31 32 33 34 35 36 37 38 39 40 41 42 43 44 45 46 47 48 49 50
000 ASUS42 KMHX 222226 RWRMHX WEATHER ROUNDUP FOR EASTERN NORTH CAROLINA NATIONAL WEATHER SERVICE NEWPORT/MOREHEAD CITY NC 600 PM EDT MON MAY 22 2017 NOTE: "FAIR" INDICATES FEW OR NO CLOUDS BELOW 12,000 FEET WITH NO SIGNIFICANT WEATHER AND/OR OBSTRUCTIONS TO VISIBILITY NCZ015>017-031-032-045>047-102-103-222300- NORTH COAST CITY SKY/WX TMP DP RH WIND PRES REMARKS EDENTON CLOUDY 80 67 65 NW12 29.93S ELIZABETH CITY CLOUDY 78 71 79 W15 29.92S KITTY HAWK NOT AVBL MANTEO LGT RAIN 68 62 80 CALM 29.95R $$ NCZ045>047-081-094-103-104-222300- CENTRAL COAST CITY SKY/WX TMP DP RH WIND PRES REMARKS FRISCO CLOUDY 79 69 71 S12 29.95F $$ NCZ095-097-098-100-101-222300- SOUTHERN COAST CITY SKY/WX TMP DP RH WIND PRES REMARKS BEAUFORT MOSUNNY 78 71 79 S14G23 29.95S CEDAR ISLAND NOT AVBL JACKSONVILLE NOT AVBL PINEY ISLAND MOCLDY N/A N/A N/A S15 29.94S WILMINGTON PTSUNNY 82 70 66 SW10 29.95R $$ NCZ011>013-027>030-043-044-078>080-089-090>093-098-222300- COASTAL PLAIN CITY SKY/WX TMP DP RH WIND PRES REMARKS AHOSKIE N/A 73 67 81 N3 29.95R CLINTON LGT RAIN 79 73 81 CALM 29.93S ELIZABETHTOWN CLOUDY 71 67 86 S6 29.95R GOLDSBORO CLOUDY 82 67 60 NW7 29.92S GREENVILLE MOSUNNY 81 68 65 N6 29.95S HAVELOCK CLOUDY 79 69 71 SW13 29.95R KENANSVILLE CLOUDY 77 70 78 CALM 29.94R KINSTON MOSUNNY 82 64 54 NW7 29.93 NEW BERN CLOUDY 79 71 76 S15 29.92F RICHLANDS TSTM 73 70 90 S5 29.95R ROCKY MOUNT CLOUDY 78 68 71 VRB7 29.94S WASHINGTON PTSUNNY 80 67 63 NW8 29.92S WHITEVILLE HVY RAIN 70 66 86 NE9 29.96R $$ AMZ130-135-150-152-154-156-158-170-250-252-270-ANZ085-086-088-633-658-670-222300- MARINE OBSERVATIONS STATION/POSITION TIME TEMP WIND PRES WAVE SWELL AIR SEA DIR/SP/G HT/PER HT/PER (UTC) (F) (DEG/KT/KT) (MB) (FT/S) (FT/S) CHESAPEAKE LIGHT NOT AVBL 64 E VA BEACH 2150 71 69 180/ 17/ 19 1013.7 4/ 8 3/ 8 DUCK 2200 67 66 150/ 6/ 8 1012.9 2 E DUCK 2200 66 N/A 4/ 7 OREGON INLET 2200 75 170/ 17/ 22 1013.0 13E OREGON INLT 2148 67 N/A 3/ 8 2/ 8 HATTERAS CG 2200 77 74 170/ 8/ 14 1013.8 DIAMOND BUOY 2150 78 78 190/ 14/ 17 1014.2 4/ 8 3/ 8 CAPE LOOKOUT 2200 77 200/ 14/ 17 1013.9 BEAUFORT LAB 2200 77 74 210/ 11/ 16 1013.5 30 SE NEW RVR IN 2208 77 77 220/ 14/ 17 1014.4 30 SE NEW RVR IN 2213 77 N/A 4/ 8 27 SE WRIGHTSVLE 2208 76 76 190/ 14/ 17 1014.1 5 SE WRIGHTSVLE 2208 76 76 190/ 8/ 16 1014.4 225 S CAPE HAT 2150 76 78 170/ 8/ 8 1016.9 3/ 8 3/ 8 41 SE CHARLESTON 2210 78 78 190/ 10/ 14 1014.1 $$

USA.gov is the U.S. government's official web portal to all federal, state and local government web resources and services.